This is the latest recevied weather packets stored in our database for station/object KE5YIM-13. If no packets are shown the sender has not sent any weather packets the latest 10 day(s).
| Time | Temp. | Humidity | Pressure | Rain* | Wind** | Luminosity | Snow |
|---|---|---|---|---|---|---|---|
| 1777850650 | 12.22° C | 37% | 1011.1 hPa | 0 mm | - | 17 W/m² | - |
| 1777850348 | 12.78° C | 35% | 1010.9 hPa | 0 mm | - | 20 W/m² | - |
| 1777850045 | 13.33° C | 33% | 1010.9 hPa | 0 mm | - | 22 W/m² | - |
| 1777849741 | 13.33° C | 36% | 1010.9 hPa | 0 mm | - | 25 W/m² | - |
| 1777849438 | 13.33° C | 34% | 1010.9 hPa | 0 mm | - | 28 W/m² | - |
| 1777849136 | 13.33° C | 32% | 1010.8 hPa | 0 mm | - | 30 W/m² | - |
| 1777848831 | 13.33° C | 33% | 1010.6 hPa | 0 mm | - | 32 W/m² | - |
| 1777848528 | 13.33° C | 34% | 1010.6 hPa | 0 mm | - | 34 W/m² | - |
| 1777848225 | 13.89° C | 34% | 1010.7 hPa | 0 mm | - | 40 W/m² | - |
| 1777847923 | 13.89° C | 33% | 1010.6 hPa | 0 mm | - | 40 W/m² | - |
| 1777847620 | 13.89° C | 32% | 1010.8 hPa | 0 mm | - | 60 W/m² | - |
| 1777847316 | 13.89° C | 32% | 1010.6 hPa | 0 mm | - | 95 W/m² | - |
| 1777847015 | 13.89° C | 33% | 1010.5 hPa | 0 mm | - | 134 W/m² | - |
| 1777846712 | 14.44° C | 34% | 1010.5 hPa | 0 mm | - | 143 W/m² | - |
| 1777846411 | 14.44° C | 36% | 1010.4 hPa | 0 mm | - | 156 W/m² | - |
| 1777846106 | 14.44° C | 34% | 1010.6 hPa | 0 mm | - | 172 W/m² | - |
| 1777845803 | 14.44° C | 34% | 1010.6 hPa | 0 mm | - | 187 W/m² | - |
| 1777845500 | 14.44° C | 36% | 1010.5 hPa | 0 mm | - | 203 W/m² | - |
| 1777845197 | 13.89° C | 35% | 1010.5 hPa | 0 mm | - | 217 W/m² | - |
| 1777844895 | 13.89° C | 34% | 1010.5 hPa | 0 mm | - | 233 W/m² | - |
| 1777844592 | 14.44° C | 34% | 1010.7 hPa | 0 mm | - | 252 W/m² | - |
| 1777844289 | 14.44° C | 34% | 1010.6 hPa | 0 mm | - | 266 W/m² | - |
| 1777843987 | 14.44° C | 34% | 1010.4 hPa | 0 mm | - | 278 W/m² | - |
| 1777843683 | 13.89° C | 33% | 1010.5 hPa | 0 mm | - | 300 W/m² | - |
| 1777843381 | 13.89° C | 35% | 1010.5 hPa | 0 mm | - | 313 W/m² | - |
* Rain latest hour (hover to see other rain measurements)
** Current wind speed in m/s (hover to see current wind gust speed)